Time,TemperatureF,DewpointF,PressureIn,WindDirection,WindDirectionDegrees,WindSpeedMPH,WindSpeedGustMPH,Humidity,HourlyPrecipIn,Conditions,Clouds,dailyrainin,SoftwareType,DateUTC
2014-01-23 00:01:00,5.9,-3.6,29.85,ESE,111,4.9,8.9,64,0.00,,,0.00,meteobridge,2014-01-23 05:01:00,
2014-01-23 00:02:00,5.9,-3.6,29.85,ESE,115,4.0,6.9,64,0.00,,,0.00,meteobridge,2014-01-23 05:02:00,
2014-01-23 00:07:00,5.7,-3.8,29.85,ESE,106,8.1,8.9,64,0.00,,,0.00,meteobridge,2014-01-23 05:07:00,
2014-01-23 00:12:00,5.7,-3.5,29.86,ESE,116,8.1,10.1,65,0.00,,,0.00,meteobridge,2014-01-23 05:12:00,
2014-01-23 00:17:00,5.7,-3.5,29.86,ESE,103,6.9,6.9,65,0.00,,,0.00,meteobridge,2014-01-23 05:17:00,
2014-01-23 00:23:00,5.7,-3.5,29.86,SSE,165,6.0,6.9,65,0.00,,,0.00,meteobridge,2014-01-23 05:23:00,
2014-01-23 00:28:00,5.7,-3.5,29.86,SSE,148,2.9,10.1,65,0.00,,,0.00,meteobridge,2014-01-23 05:28:00,
2014-01-23 00:33:00,5.5,-3.6,29.87,East,93,4.0,11.0,65,0.00,,,0.00,meteobridge,2014-01-23 05:33:00,
2014-01-23 00:38:00,5.5,-3.3,29.87,ESE,118,4.9,8.9,66,0.00,,,0.00,meteobridge,2014-01-23 05:38:00,
2014-01-23 00:43:00,5.4,-3.8,29.87,ENE,78,2.9,8.1,65,0.00,,,0.00,meteobridge,2014-01-23 05:43:00,
2014-01-23 00:48:00,5.4,-3.8,29.87,ESE,110,4.0,8.1,65,0.00,,,0.00,meteobridge,2014-01-23 05:48:00,
2014-01-23 00:53:00,5.2,-3.6,29.87,East,100,4.0,6.9,66,0.00,,,0.00,meteobridge,2014-01-23 05:53:00,
2014-01-23 00:58:00,5.2,-4.0,29.88,ESE,102,0.9,6.0,65,0.00,,,0.00,meteobridge,2014-01-23 05:58:00,
2014-01-23 01:03:00,5.2,-4.0,29.88,SE,138,6.0,12.1,65,0.00,,,0.00,meteobridge,2014-01-23 06:03:00,
2014-01-23 01:08:00,5.0,-4.2,29.88,ESE,110,8.1,8.1,65,0.00,,,0.00,meteobridge,2014-01-23 06:08:00,
2014-01-23 01:13:00,4.8,-4.7,29.88,East,101,2.9,8.9,64,0.00,,,0.00,meteobridge,2014-01-23 06:13:00,
2014-01-23 01:18:00,4.8,-4.4,29.88,ESE,105,4.0,8.1,65,0.00,,,0.00,meteobridge,2014-01-23 06:18:00,
2014-01-23 01:23:00,4.6,-4.5,29.89,South,177,2.9,13.0,65,0.00,,,0.00,meteobridge,2014-01-23 06:23:00,
2014-01-23 01:28:00,4.6,-4.5,29.89,East,90,4.9,8.9,65,0.00,,,0.00,meteobridge,2014-01-23 06:28:00,
2014-01-23 01:33:00,4.5,-4.7,29.89,ESE,121,6.0,11.0,65,0.00,,,0.00,meteobridge,2014-01-23 06:33:00,
2014-01-23 01:38:00,4.5,-5.1,29.89,ESE,104,4.0,12.1,64,0.00,,,0.00,meteobridge,2014-01-23 06:38:00,
2014-01-23 01:43:00,4.3,-5.3,29.89,East,100,6.0,8.9,64,0.00,,,0.00,meteobridge,2014-01-23 06:43:00,
2014-01-23 01:48:00,4.3,-4.9,29.89,SE,128,2.9,4.9,65,0.00,,,0.00,meteobridge,2014-01-23 06:48:00,
2014-01-23 01:53:00,4.3,-4.5,29.89,ESE,110,6.0,8.1,66,0.00,,,0.00,meteobridge,2014-01-23 06:53:00,
2014-01-23 01:58:00,4.1,-4.7,29.90,East,81,0.9,4.9,66,0.00,,,0.00,meteobridge,2014-01-23 06:58:00,
2014-01-23 02:03:00,3.9,-4.5,29.90,ESE,112,0.0,0.9,67,0.00,,,0.00,meteobridge,2014-01-23 07:03:00,
2014-01-23 02:08:00,3.9,-4.5,29.90,ESE,121,4.0,6.0,67,0.00,,,0.00,meteobridge,2014-01-23 07:08:00,
2014-01-23 02:13:00,3.9,-4.5,29.90,SE,125,2.9,6.0,67,0.00,,,0.00,meteobridge,2014-01-23 07:13:00,
2014-01-23 02:19:00,3.7,-4.7,29.90,NNE,31,6.0,8.9,67,0.00,,,0.00,meteobridge,2014-01-23 07:19:00,
2014-01-23 02:24:00,3.9,-4.9,29.90,ESE,118,6.9,10.1,66,0.00,,,0.00,meteobridge,2014-01-23 07:24:00,
2014-01-23 02:29:00,3.9,-4.9,29.90,ESE,118,4.0,8.1,66,0.00,,,0.00,meteobridge,2014-01-23 07:29:00,
2014-01-23 02:34:00,3.9,-4.9,29.90,SE,135,2.9,6.9,66,0.00,,,0.00,meteobridge,2014-01-23 07:34:00,
2014-01-23 02:39:00,3.9,-4.9,29.90,SE,128,2.0,6.0,66,0.00,,,0.00,meteobridge,2014-01-23 07:39:00,
2014-01-23 02:44:00,3.7,-5.1,29.90,ESE,105,0.9,8.9,66,0.00,,,0.00,meteobridge,2014-01-23 07:44:00,
2014-01-23 02:49:00,3.7,-5.1,29.90,ESE,116,0.9,6.0,66,0.00,,,0.00,meteobridge,2014-01-23 07:49:00,
2014-01-23 02:54:00,3.7,-5.1,29.90,ESE,120,2.0,2.0,66,0.00,,,0.00,meteobridge,2014-01-23 07:54:00,
2014-01-23 02:59:00,3.7,-4.7,29.90,East,98,4.0,8.1,67,0.00,,,0.00,meteobridge,2014-01-23 07:59:00,
2014-01-23 03:04:00,3.7,-5.1,29.90,East,91,6.0,6.9,66,0.00,,,0.00,meteobridge,2014-01-23 08:04:00,
2014-01-23 03:09:00,3.9,-4.9,29.90,ESE,121,4.9,6.9,66,0.00,,,0.00,meteobridge,2014-01-23 08:09:00,
2014-01-23 03:14:00,3.9,-4.9,29.90,ESE,110,2.0,6.0,66,0.00,,,0.00,meteobridge,2014-01-23 08:14:00,
2014-01-23 03:19:00,3.7,-4.7,29.90,SE,125,2.0,4.9,67,0.00,,,0.00,meteobridge,2014-01-23 08:19:00,
2014-01-23 03:24:00,3.9,-4.9,29.91,ESE,107,4.9,8.1,66,0.00,,,0.00,meteobridge,2014-01-23 08:24:00,
2014-01-23 03:29:00,3.9,-4.9,29.91,ESE,112,2.0,4.9,66,0.00,,,0.00,meteobridge,2014-01-23 08:29:00,
2014-01-23 03:34:00,3.9,-4.9,29.91,ESE,115,6.9,6.9,66,0.00,,,0.00,meteobridge,2014-01-23 08:34:00,
2014-01-23 03:39:00,3.9,-4.9,29.91,East,89,4.0,8.1,66,0.00,,,0.00,meteobridge,2014-01-23 08:39:00,
2014-01-23 03:44:00,3.9,-4.9,29.91,ESE,105,2.9,4.9,66,0.00,,,0.00,meteobridge,2014-01-23 08:44:00,
2014-01-23 03:49:00,3.9,-4.9,29.91,East,100,2.0,4.9,66,0.00,,,0.00,meteobridge,2014-01-23 08:49:00,
2014-01-23 03:54:00,3.7,-4.7,29.92,ENE,63,0.9,2.0,67,0.00,,,0.00,meteobridge,2014-01-23 08:54:00,
2014-01-23 04:00:00,3.6,-4.5,29.92,NE,49,0.0,2.9,68,0.00,,,0.00,meteobridge,2014-01-23 09:00:00,
2014-01-23 04:05:00,3.0,-5.1,29.92,North,5,0.9,2.0,68,0.00,,,0.00,meteobridge,2014-01-23 09:05:00,
2014-01-23 04:10:00,2.8,-5.1,29.92,NE,51,2.0,2.0,69,0.00,,,0.00,meteobridge,2014-01-23 09:10:00,
2014-01-23 04:15:00,2.7,-4.9,29.92,ENE,70,2.0,2.0,70,0.00,,,0.00,meteobridge,2014-01-23 09:15:00,
2014-01-23 04:20:00,2.5,-4.7,29.92,NE,55,0.9,2.0,71,0.00,,,0.00,meteobridge,2014-01-23 09:20:00,
2014-01-23 04:25:00,2.1,-4.9,29.93,East,85,2.0,4.0,72,0.00,,,0.00,meteobridge,2014-01-23 09:25:00,
2014-01-23 04:30:00,1.9,-5.1,29.92,ENE,65,2.9,2.9,72,0.00,,,0.00,meteobridge,2014-01-23 09:30:00,
2014-01-23 04:35:00,1.9,-4.7,29.92,ENE,62,0.9,2.9,73,0.00,,,0.00,meteobridge,2014-01-23 09:35:00,
2014-01-23 04:40:00,1.8,-4.5,29.93,ENE,63,2.0,2.9,74,0.00,,,0.00,meteobridge,2014-01-23 09:40:00,
2014-01-23 04:45:00,1.9,-4.4,29.92,ENE,70,0.9,2.0,74,0.00,,,0.00,meteobridge,2014-01-23 09:45:00,
2014-01-23 04:50:00,1.9,-4.4,29.92,ENE,72,0.9,0.9,74,0.00,,,0.00,meteobridge,2014-01-23 09:50:00,
2014-01-23 04:56:00,1.9,-4.2,29.93,ENE,72,0.9,0.9,75,0.00,,,0.00,meteobridge,2014-01-23 09:56:00,
2014-01-23 05:01:00,1.9,-3.8,29.93,ENE,72,0.0,0.0,76,0.00,,,0.00,meteobridge,2014-01-23 10:01:00,
2014-01-23 05:06:00,1.9,-3.8,29.93,ENE,72,0.9,0.9,76,0.00,,,0.00,meteobridge,2014-01-23 10:06:00,
2014-01-23 05:11:00,1.8,-4.0,29.93,ENE,63,2.0,2.0,76,0.00,,,0.00,meteobridge,2014-01-23 10:11:00,
2014-01-23 05:16:00,1.6,-4.2,29.93,NE,55,2.0,2.0,76,0.00,,,0.00,meteobridge,2014-01-23 10:16:00,
2014-01-23 05:21:00,1.6,-4.2,29.93,East,81,0.9,2.9,76,0.00,,,0.00,meteobridge,2014-01-23 10:21:00,
2014-01-23 05:26:00,1.6,-4.0,29.93,ENE,62,2.0,2.0,77,0.00,,,0.00,meteobridge,2014-01-23 10:26:00,
2014-01-23 05:31:00,1.8,-4.0,29.93,ENE,58,0.9,2.9,76,0.00,,,0.00,meteobridge,2014-01-23 10:31:00,
2014-01-23 05:36:00,1.9,-3.8,29.94,ENE,76,0.9,2.9,76,0.00,,,0.00,meteobridge,2014-01-23 10:36:00,
2014-01-23 05:42:00,1.9,-4.2,29.94,ENE,63,2.0,4.0,75,0.00,,,0.00,meteobridge,2014-01-23 10:42:00,
2014-01-23 05:47:00,1.9,-3.8,29.94,ENE,58,4.0,4.0,76,0.00,,,0.00,meteobridge,2014-01-23 10:47:00,
2014-01-23 05:52:00,1.9,-3.8,29.95,ENE,76,2.0,4.9,76,0.00,,,0.00,meteobridge,2014-01-23 10:52:00,
2014-01-23 05:57:00,1.9,-4.2,29.95,ENE,65,2.9,4.0,75,0.00,,,0.00,meteobridge,2014-01-23 10:57:00,
2014-01-23 06:02:00,1.8,-4.4,29.95,ENE,65,2.0,2.9,75,0.00,,,0.00,meteobridge,2014-01-23 11:02:00,
2014-01-23 06:07:00,1.8,-4.4,29.95,ENE,65,4.0,4.0,75,0.00,,,0.00,meteobridge,2014-01-23 11:07:00,
2014-01-23 06:12:00,1.6,-4.5,29.96,NE,53,2.9,4.9,75,0.00,,,0.00,meteobridge,2014-01-23 11:12:00,
2014-01-23 06:17:00,1.2,-4.9,29.96,ENE,71,2.9,4.0,75,0.00,,,0.00,meteobridge,2014-01-23 11:17:00,
2014-01-23 06:22:00,1.0,-5.1,29.95,ENE,61,2.9,2.9,75,0.00,,,0.00,meteobridge,2014-01-23 11:22:00,
2014-01-23 06:27:00,0.9,-4.9,29.96,ENE,62,2.0,6.0,76,0.00,,,0.00,meteobridge,2014-01-23 11:27:00,
2014-01-23 06:32:00,0.9,-4.9,29.96,ENE,60,2.9,4.9,76,0.00,,,0.00,meteobridge,2014-01-23 11:32:00,
2014-01-23 06:37:00,0.7,-5.1,29.96,ENE,65,6.9,6.9,76,0.00,,,0.00,meteobridge,2014-01-23 11:37:00,
2014-01-23 06:42:00,0.7,-5.1,29.96,ENE,62,2.9,4.9,76,0.00,,,0.00,meteobridge,2014-01-23 11:42:00,
2014-01-23 06:47:00,0.3,-5.4,29.96,ENE,62,2.0,4.0,76,0.00,,,0.00,meteobridge,2014-01-23 11:47:00,
2014-01-23 06:52:00,0.1,-5.6,29.96,ENE,65,4.0,4.0,76,0.00,,,0.00,meteobridge,2014-01-23 11:52:00,
2014-01-23 06:57:00,0.1,-5.4,29.96,ENE,67,2.9,4.0,77,0.00,,,0.00,meteobridge,2014-01-23 11:57:00,
2014-01-23 07:02:00,0.0,-5.4,29.97,ENE,65,2.9,4.9,77,0.00,,,0.00,meteobridge,2014-01-23 12:02:00,
2014-01-23 07:07:00,0.1,-5.6,29.97,ENE,65,6.0,6.0,76,0.00,,,0.00,meteobridge,2014-01-23 12:07:00,
2014-01-23 07:12:00,0.3,-5.4,29.97,ENE,58,4.9,6.9,76,0.00,,,0.00,meteobridge,2014-01-23 12:12:00,
2014-01-23 07:17:00,0.3,-5.8,29.97,ENE,62,4.9,6.0,75,0.00,,,0.00,meteobridge,2014-01-23 12:17:00,
2014-01-23 07:22:00,0.3,-5.8,29.97,ESE,105,0.9,6.0,75,0.00,,,0.00,meteobridge,2014-01-23 12:22:00,
2014-01-23 07:27:00,0.3,-5.8,29.97,NE,53,2.9,6.0,75,0.00,,,0.00,meteobridge,2014-01-23 12:27:00,
2014-01-23 07:32:00,0.5,-5.6,29.97,ENE,73,2.9,8.1,75,0.00,,,0.00,meteobridge,2014-01-23 12:32:00,
2014-01-23 07:38:00,0.7,-5.4,29.98,ENE,77,2.9,6.0,75,0.00,,,0.00,meteobridge,2014-01-23 12:38:00,
2014-01-23 07:43:00,1.0,-5.3,29.98,East,84,4.9,8.1,74,0.00,,,0.00,meteobridge,2014-01-23 12:43:00,
2014-01-23 07:48:00,1.0,-5.3,29.98,East,82,4.0,6.0,74,0.00,,,0.00,meteobridge,2014-01-23 12:48:00,
2014-01-23 07:53:00,1.2,-5.1,29.98,East,81,2.0,4.0,74,0.00,,,0.00,meteobridge,2014-01-23 12:53:00,
2014-01-23 07:58:00,1.4,-4.9,29.97,ENE,77,2.0,4.0,74,0.00,,,0.00,meteobridge,2014-01-23 12:58:00,
2014-01-23 08:03:00,1.6,-5.1,29.97,NE,56,2.0,8.1,73,0.00,,,0.00,meteobridge,2014-01-23 13:03:00,
2014-01-23 08:08:00,1.8,-4.9,29.98,ENE,77,0.9,4.9,73,0.00,,,0.00,meteobridge,2014-01-23 13:08:00,
2014-01-23 08:13:00,2.3,-4.4,29.97,East,91,2.0,4.9,73,0.00,,,0.00,meteobridge,2014-01-23 13:13:00,
2014-01-23 08:18:00,2.8,-3.8,29.98,East,89,0.9,4.0,73,0.00,,,0.00,meteobridge,2014-01-23 13:18:00,
2014-01-23 08:23:00,3.2,-3.5,29.98,ENE,65,2.0,6.9,73,0.00,,,0.00,meteobridge,2014-01-23 13:23:00,
2014-01-23 08:28:00,3.6,-3.1,29.98,East,81,0.9,6.9,73,0.00,,,0.00,meteobridge,2014-01-23 13:28:00,
2014-01-23 08:33:00,3.9,-3.1,29.98,ENE,68,2.0,4.0,72,0.00,,,0.00,meteobridge,2014-01-23 13:33:00,
2014-01-23 08:38:00,4.3,-2.7,29.98,ENE,72,4.0,4.9,72,0.00,,,0.00,meteobridge,2014-01-23 13:38:00,
2014-01-23 08:43:00,4.3,-2.7,29.98,ESE,104,0.9,6.9,72,0.00,,,0.00,meteobridge,2014-01-23 13:43:00,
2014-01-23 08:48:00,4.5,-2.6,29.98,ENE,62,4.0,4.9,72,0.00,,,0.00,meteobridge,2014-01-23 13:48:00,
2014-01-23 08:53:00,4.6,-2.4,29.99,ENE,58,2.0,4.9,72,0.00,,,0.00,meteobridge,2014-01-23 13:53:00,
2014-01-23 08:58:00,5.0,-2.4,29.99,East,98,0.9,8.1,71,0.00,,,0.00,meteobridge,2014-01-23 13:58:00,
2014-01-23 09:03:00,5.4,-2.0,29.99,East,83,6.0,8.1,71,0.00,,,0.00,meteobridge,2014-01-23 14:03:00,
2014-01-23 09:09:00,5.7,-2.0,29.99,East,87,6.0,6.9,70,0.00,,,0.00,meteobridge,2014-01-23 14:09:00,
2014-01-23 09:14:00,6.3,-1.5,29.99,ESE,103,2.9,6.0,70,0.00,,,0.00,meteobridge,2014-01-23 14:14:00,
2014-01-23 09:19:00,7.2,-0.2,29.99,North,351,2.0,2.9,71,0.00,,,0.00,meteobridge,2014-01-23 14:19:00,
2014-01-23 09:24:00,8.1,0.0,29.99,SE,142,2.9,8.1,69,0.00,,,0.00,meteobridge,2014-01-23 14:24:00,
2014-01-23 09:29:00,8.4,-0.2,29.99,ESE,116,4.9,8.1,67,0.00,,,0.00,meteobridge,2014-01-23 14:29:00,
2014-01-23 09:34:00,9.0,0.5,29.99,East,93,6.9,8.1,68,0.00,,,0.00,meteobridge,2014-01-23 14:34:00,
2014-01-23 09:39:00,9.1,0.5,29.99,East,90,4.0,4.9,67,0.00,,,0.00,meteobridge,2014-01-23 14:39:00,
2014-01-23 09:44:00,9.0,0.0,29.99,NNE,31,0.9,6.0,66,0.00,,,0.00,meteobridge,2014-01-23 14:44:00,
2014-01-23 09:49:00,9.1,0.1,29.99,ENE,65,4.0,6.9,66,0.00,,,0.00,meteobridge,2014-01-23 14:49:00,
2014-01-23 09:50:00,9.1,0.1,29.99,East,79,2.0,4.9,66,0.00,,,0.00,meteobridge,2014-01-23 14:50:00,
2014-01-23 09:55:00,9.7,0.7,29.99,ESE,110,2.9,4.9,66,0.00,,,0.00,meteobridge,2014-01-23 14:55:00,
2014-01-23 10:00:00,10.0,0.3,29.99,East,93,6.0,8.1,64,0.00,,,0.00,meteobridge,2014-01-23 15:00:00,
2014-01-23 10:05:00,10.2,0.5,29.99,ESE,105,2.0,6.0,64,0.00,,,0.00,meteobridge,2014-01-23 15:05:00,
2014-01-23 10:10:00,10.4,0.3,29.99,East,98,2.9,6.0,63,0.00,,,0.00,meteobridge,2014-01-23 15:10:00,
2014-01-23 10:15:00,10.8,0.0,29.99,East,79,4.0,6.9,61,0.00,,,0.00,meteobridge,2014-01-23 15:15:00,
2014-01-23 10:20:00,10.9,0.5,29.99,East,93,2.9,4.0,62,0.00,,,0.00,meteobridge,2014-01-23 15:20:00,
2014-01-23 10:25:00,11.1,0.3,29.99,ESE,115,0.9,4.9,61,0.00,,,0.00,meteobridge,2014-01-23 15:25:00,
2014-01-23 10:30:00,11.5,0.3,29.99,ESE,106,4.0,8.1,60,0.00,,,0.00,meteobridge,2014-01-23 15:30:00,
2014-01-23 10:35:00,11.5,0.7,29.99,ENE,76,0.9,4.9,61,0.00,,,0.00,meteobridge,2014-01-23 15:35:00,
2014-01-23 10:40:00,11.7,0.5,29.99,ESE,117,4.0,8.1,60,0.00,,,0.00,meteobridge,2014-01-23 15:40:00,
2014-01-23 10:45:00,11.8,1.0,29.99,SE,146,2.9,6.0,61,0.00,,,0.00,meteobridge,2014-01-23 15:45:00,
2014-01-23 10:50:00,12.7,2.1,29.99,ESE,122,4.0,4.0,62,0.00,,,0.00,meteobridge,2014-01-23 15:50:00,
2014-01-23 10:55:00,12.9,0.9,29.99,East,100,8.1,10.1,58,0.00,,,0.00,meteobridge,2014-01-23 15:55:00,
2014-01-23 11:00:00,12.6,0.5,29.99,East,96,6.9,6.9,58,0.00,,,0.00,meteobridge,2014-01-23 16:00:00,
2014-01-23 11:05:00,13.1,1.8,29.98,East,93,6.0,6.0,60,0.00,,,0.00,meteobridge,2014-01-23 16:05:00,
2014-01-23 11:11:00,13.3,1.2,29.98,East,94,0.0,11.0,58,0.00,,,0.00,meteobridge,2014-01-23 16:11:00,
2014-01-23 11:16:00,13.8,2.1,29.98,ESE,122,4.0,6.9,59,0.00,,,0.00,meteobridge,2014-01-23 16:16:00,
2014-01-23 11:21:00,14.5,2.5,29.98,SSW,194,2.9,6.0,58,0.00,,,0.00,meteobridge,2014-01-23 16:21:00,
2014-01-23 11:26:00,15.1,2.7,29.97,East,84,2.9,6.0,57,0.00,,,0.00,meteobridge,2014-01-23 16:26:00,
2014-01-23 11:31:00,15.3,2.3,29.97,ESE,118,6.0,8.9,56,0.00,,,0.00,meteobridge,2014-01-23 16:31:00,
2014-01-23 11:36:00,15.6,2.7,29.97,ESE,122,4.0,8.9,56,0.00,,,0.00,meteobridge,2014-01-23 16:36:00,
2014-01-23 11:41:00,16.2,3.6,29.96,ESE,120,6.0,6.9,57,0.00,,,0.00,meteobridge,2014-01-23 16:41:00,
2014-01-23 11:46:00,16.0,2.3,29.96,ENE,63,4.9,8.1,54,0.00,,,0.00,meteobridge,2014-01-23 16:46:00,
2014-01-23 11:51:00,16.0,2.7,29.96,ESE,103,6.0,11.0,55,0.00,,,0.00,meteobridge,2014-01-23 16:51:00,
2014-01-23 11:56:00,16.0,3.0,29.96,SE,124,4.9,6.0,56,0.00,,,0.00,meteobridge,2014-01-23 16:56:00,
2014-01-23 12:01:00,16.2,2.8,29.96,East,100,2.0,8.1,55,0.00,,,0.00,meteobridge,2014-01-23 17:01:00,
2014-01-23 12:06:00,16.9,3.6,29.96,SE,138,4.0,6.0,55,0.00,,,0.00,meteobridge,2014-01-23 17:06:00,
2014-01-23 12:11:00,17.1,3.2,29.96,SE,124,2.0,10.1,54,0.00,,,0.00,meteobridge,2014-01-23 17:11:00,
2014-01-23 12:16:00,17.2,3.9,29.96,SE,133,2.9,6.0,55,0.00,,,0.00,meteobridge,2014-01-23 17:16:00,
2014-01-23 12:21:00,17.8,3.9,29.96,ESE,113,2.0,6.9,54,0.00,,,0.00,meteobridge,2014-01-23 17:21:00,
2014-01-23 12:26:00,18.0,4.1,29.96,ESE,122,4.9,6.0,54,0.00,,,0.00,meteobridge,2014-01-23 17:26:00,
2014-01-23 12:31:00,18.1,4.3,29.95,ESE,117,2.9,6.0,54,0.00,,,0.00,meteobridge,2014-01-23 17:31:00,
2014-01-23 12:36:00,18.9,4.1,29.95,East,86,2.0,8.1,52,0.00,,,0.00,meteobridge,2014-01-23 17:36:00,
2014-01-23 12:41:00,19.4,4.6,29.95,ESE,108,2.9,6.0,52,0.00,,,0.00,meteobridge,2014-01-23 17:41:00,
2014-01-23 12:46:00,19.4,4.3,29.95,East,101,2.9,6.0,51,0.00,,,0.00,meteobridge,2014-01-23 17:46:00,
2014-01-23 12:51:00,19.0,3.9,29.95,East,83,2.9,8.9,51,0.00,,,0.00,meteobridge,2014-01-23 17:51:00,
2014-01-23 12:56:00,19.0,4.3,29.95,ENE,68,4.9,6.9,52,0.00,,,0.00,meteobridge,2014-01-23 17:56:00,
2014-01-23 13:01:00,19.2,4.5,29.95,East,86,6.0,6.0,52,0.00,,,0.00,meteobridge,2014-01-23 18:01:00,
2014-01-23 13:07:00,19.2,4.1,29.95,East,89,6.0,8.1,51,0.00,,,0.00,meteobridge,2014-01-23 18:07:00,
2014-01-23 13:12:00,19.0,3.9,29.95,East,98,6.0,8.9,51,0.00,,,0.00,meteobridge,2014-01-23 18:12:00,
2014-01-23 13:17:00,18.7,3.2,29.95,ESE,108,4.9,8.9,50,0.00,,,0.00,meteobridge,2014-01-23 18:17:00,
2014-01-23 13:22:00,18.9,3.7,29.95,East,89,4.9,10.1,51,0.00,,,0.00,meteobridge,2014-01-23 18:22:00,
2014-01-23 13:27:00,19.0,3.9,29.95,ESE,116,10.1,13.0,51,0.00,,,0.00,meteobridge,2014-01-23 18:27:00,
2014-01-23 13:32:00,18.7,3.2,29.95,East,80,2.0,8.9,50,0.00,,,0.00,meteobridge,2014-01-23 18:32:00,
2014-01-23 13:37:00,19.0,3.4,29.95,ESE,115,8.1,10.1,50,0.00,,,0.00,meteobridge,2014-01-23 18:37:00,
2014-01-23 13:42:00,19.0,3.4,29.95,NE,56,2.0,6.9,50,0.00,,,0.00,meteobridge,2014-01-23 18:42:00,
2014-01-23 13:47:00,19.6,4.5,29.96,ENE,60,4.0,4.9,51,0.00,,,0.00,meteobridge,2014-01-23 18:47:00,
2014-01-23 13:52:00,19.8,3.7,29.95,ESE,108,4.0,6.0,49,0.00,,,0.00,meteobridge,2014-01-23 18:52:00,
2014-01-23 13:57:00,19.9,3.9,29.95,East,85,2.0,6.0,49,0.00,,,0.00,meteobridge,2014-01-23 18:57:00,
2014-01-23 14:02:00,19.9,3.4,29.96,East,85,4.0,8.1,48,0.00,,,0.00,meteobridge,2014-01-23 19:02:00,
2014-01-23 14:07:00,19.9,3.4,29.96,SE,137,2.9,6.9,48,0.00,,,0.00,meteobridge,2014-01-23 19:07:00,
2014-01-23 14:12:00,19.9,3.4,29.96,ENE,60,4.0,6.0,48,0.00,,,0.00,meteobridge,2014-01-23 19:12:00,
2014-01-23 14:17:00,20.3,3.7,29.95,SE,146,2.0,6.0,48,0.00,,,0.00,meteobridge,2014-01-23 19:17:00,
2014-01-23 14:22:00,20.5,3.4,29.96,ENE,78,0.0,6.0,47,0.00,,,0.00,meteobridge,2014-01-23 19:22:00,
2014-01-23 14:27:00,20.8,3.7,29.96,East,82,0.9,4.0,47,0.00,,,0.00,meteobridge,2014-01-23 19:27:00,
2014-01-23 14:32:00,20.7,4.1,29.96,East,82,2.0,2.9,48,0.00,,,0.00,meteobridge,2014-01-23 19:32:00,
2014-01-23 14:37:00,20.7,2.7,29.96,East,101,4.0,6.0,45,0.00,,,0.00,meteobridge,2014-01-23 19:37:00,
2014-01-23 14:42:00,20.5,3.4,29.96,ENE,64,2.0,4.9,47,0.00,,,0.00,meteobridge,2014-01-23 19:42:00,
2014-01-23 14:47:00,20.7,4.1,29.96,East,100,2.9,6.0,48,0.00,,,0.00,meteobridge,2014-01-23 19:47:00,
2014-01-23 14:52:00,20.5,3.0,29.96,East,98,2.0,6.9,46,0.00,,,0.00,meteobridge,2014-01-23 19:52:00,
2014-01-23 14:57:00,20.3,2.8,29.97,ESE,118,4.0,4.9,46,0.00,,,0.00,meteobridge,2014-01-23 19:57:00,
2014-01-23 15:02:00,20.3,2.8,29.97,East,99,4.0,4.9,46,0.00,,,0.00,meteobridge,2014-01-23 20:02:00,
2014-01-23 15:08:00,20.1,2.7,29.97,ENE,73,2.0,2.9,46,0.00,,,0.00,meteobridge,2014-01-23 20:08:00,
2014-01-23 15:13:00,20.1,2.1,29.97,East,79,4.9,6.0,45,0.00,,,0.00,meteobridge,2014-01-23 20:13:00,
2014-01-23 15:18:00,19.9,1.6,29.97,East,88,2.0,4.0,44,0.00,,,0.00,meteobridge,2014-01-23 20:18:00,
2014-01-23 15:23:00,20.1,2.1,29.98,NE,50,4.9,6.9,45,0.00,,,0.00,meteobridge,2014-01-23 20:23:00,
2014-01-23 15:28:00,20.1,1.8,29.98,ENE,61,2.9,8.1,44,0.00,,,0.00,meteobridge,2014-01-23 20:28:00,
2014-01-23 15:33:00,20.5,2.5,29.98,ESE,118,4.0,4.9,45,0.00,,,0.00,meteobridge,2014-01-23 20:33:00,
2014-01-23 15:38:00,20.1,1.8,29.98,SE,124,4.0,8.1,44,0.00,,,0.00,meteobridge,2014-01-23 20:38:00,
2014-01-23 15:43:00,19.9,1.9,29.98,ENE,63,4.0,4.9,45,0.00,,,0.00,meteobridge,2014-01-23 20:43:00,
2014-01-23 15:48:00,19.8,2.3,29.98,ESE,110,4.0,6.9,46,0.00,,,0.00,meteobridge,2014-01-23 20:48:00,
2014-01-23 15:53:00,19.6,2.1,29.98,ESE,121,2.9,6.9,46,0.00,,,0.00,meteobridge,2014-01-23 20:53:00,
2014-01-23 15:58:00,19.2,1.8,29.98,East,98,4.9,8.1,46,0.00,,,0.00,meteobridge,2014-01-23 20:58:00,
2014-01-23 16:03:00,19.0,2.1,29.98,ESE,104,2.0,4.9,47,0.00,,,0.00,meteobridge,2014-01-23 21:03:00,
2014-01-23 16:08:00,18.9,1.9,29.98,East,89,0.9,4.9,47,0.00,,,0.00,meteobridge,2014-01-23 21:08:00,
2014-01-23 16:13:00,18.7,2.3,29.98,ESE,115,2.0,6.0,48,0.00,,,0.00,meteobridge,2014-01-23 21:13:00,
2014-01-23 16:18:00,18.3,2.3,29.98,East,89,2.0,2.9,49,0.00,,,0.00,meteobridge,2014-01-23 21:18:00,
2014-01-23 16:23:00,18.3,1.9,29.99,East,91,2.9,4.9,48,0.00,,,0.00,meteobridge,2014-01-23 21:23:00,
2014-01-23 16:28:00,18.3,1.9,29.99,East,91,4.9,6.0,48,0.00,,,0.00,meteobridge,2014-01-23 21:28:00,
2014-01-23 16:33:00,18.3,2.3,29.99,East,85,4.9,6.0,49,0.00,,,0.00,meteobridge,2014-01-23 21:33:00,
2014-01-23 16:38:00,18.1,2.1,29.99,ESE,112,2.0,4.9,49,0.00,,,0.00,meteobridge,2014-01-23 21:38:00,
2014-01-23 16:43:00,18.1,2.1,30.00,ENE,63,2.0,2.9,49,0.00,,,0.00,meteobridge,2014-01-23 21:43:00,
2014-01-23 16:48:00,18.1,2.7,30.00,East,94,4.0,4.0,50,0.00,,,0.00,meteobridge,2014-01-23 21:48:00,
2014-01-23 16:54:00,18.0,2.5,30.00,East,95,4.0,6.0,50,0.00,,,0.00,meteobridge,2014-01-23 21:54:00,
2014-01-23 16:59:00,18.0,2.8,30.00,East,91,0.0,2.9,51,0.00,,,0.00,meteobridge,2014-01-23 21:59:00,
2014-01-23 17:04:00,17.4,2.8,30.00,ENE,65,2.9,4.0,52,0.00,,,0.00,meteobridge,2014-01-23 22:04:00,
2014-01-23 17:09:00,17.4,2.8,30.01,East,90,4.0,4.9,52,0.00,,,0.00,meteobridge,2014-01-23 22:09:00,
2014-01-23 17:14:00,17.2,2.7,30.01,ENE,62,0.9,4.0,52,0.00,,,0.00,meteobridge,2014-01-23 22:14:00,
2014-01-23 17:19:00,17.2,2.7,30.01,NE,56,2.9,6.9,52,0.00,,,0.00,meteobridge,2014-01-23 22:19:00,
2014-01-23 17:24:00,17.1,2.8,30.01,ESE,103,6.0,8.1,53,0.00,,,0.00,meteobridge,2014-01-23 22:24:00,
2014-01-23 17:29:00,17.1,2.8,30.02,East,84,4.0,6.9,53,0.00,,,0.00,meteobridge,2014-01-23 22:29:00,
2014-01-23 17:34:00,16.9,2.7,30.02,SE,125,6.0,14.1,53,0.00,,,0.00,meteobridge,2014-01-23 22:34:00,
2014-01-23 17:39:00,16.7,2.5,30.02,East,87,10.1,15.0,53,0.00,,,0.00,meteobridge,2014-01-23 22:39:00,
2014-01-23 17:44:00,16.5,2.8,30.02,NE,47,2.0,8.1,54,0.00,,,0.00,meteobridge,2014-01-23 22:44:00,
2014-01-23 17:49:00,16.3,2.7,30.02,East,91,4.0,12.1,54,0.00,,,0.00,meteobridge,2014-01-23 22:49:00,
2014-01-23 17:54:00,16.2,3.2,30.02,East,98,2.9,8.1,56,0.00,,,0.00,meteobridge,2014-01-23 22:54:00,
2014-01-23 17:59:00,16.0,3.0,30.02,SE,132,4.9,15.0,56,0.00,,,0.00,meteobridge,2014-01-23 22:59:00,
2014-01-23 18:04:00,15.8,2.8,30.02,East,83,2.9,10.1,56,0.00,,,0.00,meteobridge,2014-01-23 23:04:00,
2014-01-23 18:09:00,15.6,3.0,30.02,ENE,65,6.0,10.1,57,0.00,,,0.00,meteobridge,2014-01-23 23:09:00,
2014-01-23 18:14:00,15.4,3.4,30.02,SSW,200,4.9,8.9,58,0.00,,,0.00,meteobridge,2014-01-23 23:14:00,
2014-01-23 18:19:00,15.4,2.8,30.02,SE,139,2.9,8.1,57,0.00,,,0.00,meteobridge,2014-01-23 23:19:00,
2014-01-23 18:24:00,15.3,2.8,30.03,ESE,103,6.0,8.9,57,0.00,,,0.00,meteobridge,2014-01-23 23:24:00,
2014-01-23 18:29:00,15.3,3.2,30.03,SE,130,4.0,6.0,58,0.00,,,0.00,meteobridge,2014-01-23 23:29:00,
2014-01-23 18:34:00,15.1,3.4,30.03,SSE,157,2.0,4.0,59,0.00,,,0.00,meteobridge,2014-01-23 23:34:00,
2014-01-23 18:39:00,15.1,3.4,30.03,ESE,105,2.0,4.0,59,0.00,,,0.00,meteobridge,2014-01-23 23:39:00,
2014-01-23 18:44:00,14.9,3.6,30.03,ESE,110,0.9,4.9,60,0.00,,,0.00,meteobridge,2014-01-23 23:44:00,
2014-01-23 18:49:00,14.7,3.4,30.03,ESE,122,2.9,6.9,60,0.00,,,0.00,meteobridge,2014-01-23 23:49:00,
2014-01-23 18:54:00,14.7,3.0,30.03,ESE,119,6.0,11.0,59,0.00,,,0.00,meteobridge,2014-01-23 23:54:00,
2014-01-23 18:59:00,14.7,3.0,30.04,NW,314,4.0,6.0,59,0.00,,,0.00,meteobridge,2014-01-23 23:59:00,
2014-01-23 19:04:00,14.5,2.8,30.04,SE,138,2.9,4.9,59,0.00,,,0.00,meteobridge,2014-01-24 00:04:00,
2014-01-23 19:09:00,14.5,2.8,30.04,SSE,156,2.0,4.9,59,0.00,,,0.00,meteobridge,2014-01-24 00:09:00,
2014-01-23 19:15:00,14.4,3.0,30.04,ESE,121,4.0,8.1,60,0.00,,,0.00,meteobridge,2014-01-24 00:15:00,
2014-01-23 19:20:00,14.4,2.7,30.05,SE,144,6.0,11.0,59,0.00,,,0.00,meteobridge,2014-01-24 00:20:00,
2014-01-23 19:25:00,14.4,2.7,30.05,ESE,122,6.9,8.9,59,0.00,,,0.00,meteobridge,2014-01-24 00:25:00,
2014-01-23 19:30:00,14.2,2.8,30.05,ESE,121,6.0,6.9,60,0.00,,,0.00,meteobridge,2014-01-24 00:30:00,
2014-01-23 19:35:00,14.2,2.5,30.05,ESE,114,11.0,11.0,59,0.00,,,0.00,meteobridge,2014-01-24 00:35:00,
2014-01-23 19:40:00,13.8,2.1,30.05,ESE,118,2.0,6.0,59,0.00,,,0.00,meteobridge,2014-01-24 00:40:00,
2014-01-23 19:45:00,13.6,2.3,30.06,East,89,2.0,12.1,60,0.00,,,0.00,meteobridge,2014-01-24 00:45:00,
2014-01-23 19:50:00,13.6,2.3,30.06,ESE,119,4.9,6.9,60,0.00,,,0.00,meteobridge,2014-01-24 00:50:00,
2014-01-23 19:55:00,13.5,2.5,30.06,SE,131,2.0,4.9,61,0.00,,,0.00,meteobridge,2014-01-24 00:55:00,
2014-01-23 20:00:00,13.3,2.3,30.06,East,87,2.9,6.9,61,0.00,,,0.00,meteobridge,2014-01-24 01:00:00,
2014-01-23 20:05:00,13.3,2.3,30.06,East,100,4.9,8.1,61,0.00,,,0.00,meteobridge,2014-01-24 01:05:00,
2014-01-23 20:10:00,13.1,2.5,30.06,ESE,118,4.0,8.1,62,0.00,,,0.00,meteobridge,2014-01-24 01:10:00,
2014-01-23 20:15:00,13.1,2.1,30.06,ESE,121,6.0,10.1,61,0.00,,,0.00,meteobridge,2014-01-24 01:15:00,
2014-01-23 20:20:00,12.9,2.7,30.06,ESE,119,2.9,4.0,63,0.00,,,0.00,meteobridge,2014-01-24 01:20:00,
2014-01-23 20:25:00,12.7,2.8,30.07,ENE,72,4.0,4.9,64,0.00,,,0.00,meteobridge,2014-01-24 01:25:00,
2014-01-23 20:30:00,12.6,3.0,30.07,East,97,2.9,2.9,65,0.00,,,0.00,meteobridge,2014-01-24 01:30:00,
2014-01-23 20:35:00,12.4,3.2,30.07,ENE,72,2.9,4.0,66,0.00,,,0.00,meteobridge,2014-01-24 01:35:00,
2014-01-23 20:41:00,12.2,3.0,30.07,ESE,114,2.0,4.0,66,0.00,,,0.00,meteobridge,2014-01-24 01:41:00,
2014-01-23 20:46:00,12.0,1.8,30.07,SE,125,4.0,6.9,63,0.00,,,0.00,meteobridge,2014-01-24 01:46:00,
2014-01-23 20:51:00,12.0,1.2,30.07,ENE,58,6.0,12.1,61,0.00,,,0.00,meteobridge,2014-01-24 01:51:00,
2014-01-23 20:56:00,11.8,1.0,30.08,East,88,4.0,4.9,61,0.00,,,0.00,meteobridge,2014-01-24 01:56:00,
2014-01-23 21:01:00,11.8,0.3,30.07,ESE,103,4.9,6.9,59,0.00,,,0.00,meteobridge,2014-01-24 02:01:00,
2014-01-23 21:06:00,11.8,0.0,30.07,ESE,106,8.1,8.1,58,0.00,,,0.00,meteobridge,2014-01-24 02:06:00,
2014-01-23 21:11:00,11.8,0.0,30.07,East,101,8.1,11.0,58,0.00,,,0.00,meteobridge,2014-01-24 02:11:00,
2014-01-23 21:16:00,11.8,-0.4,30.07,NE,50,4.0,12.1,57,0.00,,,0.00,meteobridge,2014-01-24 02:16:00,
2014-01-23 21:21:00,11.8,0.0,30.07,ENE,62,6.0,8.1,58,0.00,,,0.00,meteobridge,2014-01-24 02:21:00,
2014-01-23 21:26:00,11.8,0.0,30.07,ESE,115,2.9,8.9,58,0.00,,,0.00,meteobridge,2014-01-24 02:26:00,
2014-01-23 21:31:00,11.7,0.1,30.08,ESE,120,6.0,6.9,59,0.00,,,0.00,meteobridge,2014-01-24 02:31:00,
2014-01-23 21:36:00,11.7,0.1,30.07,SE,128,4.0,6.9,59,0.00,,,0.00,meteobridge,2014-01-24 02:36:00,
2014-01-23 21:41:00,11.5,-0.4,30.07,ESE,104,6.9,8.9,58,0.00,,,0.00,meteobridge,2014-01-24 02:41:00,
2014-01-23 21:46:00,11.5,-0.4,30.08,East,100,6.9,6.9,58,0.00,,,0.00,meteobridge,2014-01-24 02:46:00,
2014-01-23 21:51:00,11.1,-0.8,30.08,East,82,4.0,6.9,58,0.00,,,0.00,meteobridge,2014-01-24 02:51:00,
2014-01-23 21:56:00,10.8,-0.8,30.08,East,89,4.0,8.1,59,0.00,,,0.00,meteobridge,2014-01-24 02:56:00,
2014-01-23 22:01:00,10.6,-0.6,30.08,East,89,4.9,8.1,60,0.00,,,0.00,meteobridge,2014-01-24 03:01:00,
2014-01-23 22:06:00,10.2,-0.6,30.08,ENE,58,4.0,6.0,61,0.00,,,0.00,meteobridge,2014-01-24 03:06:00,
2014-01-23 22:11:00,10.0,-0.4,30.08,East,79,2.9,4.9,62,0.00,,,0.00,meteobridge,2014-01-24 03:11:00,
2014-01-23 22:16:00,9.9,-0.6,30.08,East,93,2.0,4.9,62,0.00,,,0.00,meteobridge,2014-01-24 03:16:00,
2014-01-23 22:21:00,9.9,-0.6,30.08,ENE,75,2.0,4.9,62,0.00,,,0.00,meteobridge,2014-01-24 03:21:00,
2014-01-23 22:26:00,9.7,-0.8,30.08,East,83,2.9,6.0,62,0.00,,,0.00,meteobridge,2014-01-24 03:26:00,
2014-01-23 22:31:00,9.3,-1.1,30.08,ENE,66,4.0,6.9,62,0.00,,,0.00,meteobridge,2014-01-24 03:31:00,
2014-01-23 22:37:00,9.3,-1.1,30.08,East,99,2.0,6.0,62,0.00,,,0.00,meteobridge,2014-01-24 03:37:00,
2014-01-23 22:42:00,9.3,-1.5,30.08,NE,53,4.9,6.9,61,0.00,,,0.00,meteobridge,2014-01-24 03:42:00,
2014-01-23 22:47:00,9.1,-1.7,30.08,ENE,66,2.0,8.1,61,0.00,,,0.00,meteobridge,2014-01-24 03:47:00,
2014-01-23 22:52:00,9.1,-1.7,30.08,ENE,68,4.0,10.1,61,0.00,,,0.00,meteobridge,2014-01-24 03:52:00,
2014-01-23 22:57:00,9.0,-1.5,30.08,ENE,66,4.0,6.0,62,0.00,,,0.00,meteobridge,2014-01-24 03:57:00,
2014-01-23 23:02:00,9.0,-1.5,30.08,East,91,4.0,6.0,62,0.00,,,0.00,meteobridge,2014-01-24 04:02:00,
2014-01-23 23:07:00,8.8,-1.7,30.08,ENE,78,2.9,6.0,62,0.00,,,0.00,meteobridge,2014-01-24 04:07:00,
2014-01-23 23:12:00,8.6,-1.5,30.08,East,88,2.0,6.9,63,0.00,,,0.00,meteobridge,2014-01-24 04:12:00,
2014-01-23 23:17:00,8.4,-1.7,30.08,ENE,63,2.9,6.9,63,0.00,,,0.00,meteobridge,2014-01-24 04:17:00,
2014-01-23 23:22:00,8.2,-1.5,30.08,ENE,58,2.9,4.9,64,0.00,,,0.00,meteobridge,2014-01-24 04:22:00,
2014-01-23 23:27:00,8.1,-1.7,30.08,East,88,0.9,4.0,64,0.00,,,0.00,meteobridge,2014-01-24 04:27:00,
2014-01-23 23:32:00,8.1,-1.7,30.08,NE,39,2.9,2.9,64,0.00,,,0.00,meteobridge,2014-01-24 04:32:00,
2014-01-23 23:37:00,8.1,-1.3,30.09,ENE,72,2.0,4.0,65,0.00,,,0.00,meteobridge,2014-01-24 04:37:00,
2014-01-23 23:42:00,8.1,-1.3,30.08,East,101,4.0,4.9,65,0.00,,,0.00,meteobridge,2014-01-24 04:42:00,
2014-01-23 23:48:00,8.1,-0.9,30.08,ESE,113,0.0,4.9,66,0.00,,,0.00,meteobridge,2014-01-24 04:48:00,
2014-01-23 23:53:00,8.1,-0.9,30.09,ESE,113,0.9,4.0,66,0.00,,,0.00,meteobridge,2014-01-24 04:53:00,
2014-01-23 23:58:00,8.1,-0.6,30.09,ESE,105,0.9,0.9,67,0.00,,,0.00,meteobridge,2014-01-24 04:58:00,